Regional Weather Roundup
Issued by NWS

Home | Current Version | Previous Version | Graphics & Text | Print | Product List | Glossary Off
Versions: 1 2 3 4 5 6 7 8 9 10 11 12 13 14 15 16 17 18 19 20 21 22 23 24 25 26 27 28 29 30 31 32 33 34 35 36 37 38 39 40 41 42 43 44 45 46 47 48 49 50

000
ASUS43 KMKX 221500
RWRWI

WISCONSIN REGIONAL WEATHER ROUNDUP
NATIONAL WEATHER SERVICE MILWAUKEE/SULLIVAN WI
900 AM CST WED FEB 22 2017

NOTE: "FAIR" INDICATES FEW OR NO CLOUDS BELOW 12,000 FEET WITH NO
SIGNIFICANT WEATHER AND/OR OBSTRUCTIONS TO VISIBILITY.

WIZ001-002-006>008-014>016-023>028-221600-
NORTHWEST WISCONSIN

CITY           SKY/WX    TMP DP  RH WIND       PRES   REMARKS
SUPERIOR ARPT  CLOUDY    34  34 100 CALM      29.64F FOG
ASHLAND        CLOUDY    40  39  97 E3        29.62F
HAYWARD        CLOUDY    39  37  92 N7        29.60F WCI  34
SIREN          FOG       37  36  99 CALM      29.62R VSB<1/4
CUMBERLAND     FOG       36  34  93 CALM      29.60R VSB 1
RICE LAKE      CLOUDY    37  37  99 CALM      29.62R
CHETEK         CLOUDY    40  39  95 CALM      29.62R
LADYSMITH      MOSUNNY   41  38  89 CALM      29.62F
EAU CLAIRE     NOT AVBL
MENOMONIE      MOSUNNY   44  38  81 N5        29.60S
NEW RICHMOND   MOSUNNY   40  40 100 CALM      29.60F
OSCEOLA        CLOUDY    39  39 100 CALM      29.64R FOG
$$

WIZ003>005-009-010-017-018-221600-
NORTH CENTRAL WISCONSIN

CITY           SKY/WX    TMP DP  RH WIND       PRES   REMARKS
MANITOWISH WTR PTSUNNY   37  37 100 CALM      29.62F
ARBOR VITAE    MOSUNNY   39  37  91 CALM        N/A
WOODRUFF       MOSUNNY   39  37  91 CALM        N/A
RHINELANDER    CLOUDY    45  38  76 SE3       29.62S
EAGLE RIVER    CLOUDY    40  36  85 CALM      29.62F
LAND O LAKES   CLOUDY    42  35  77 CALM      29.64F
PHILLIPS       PTSUNNY   41  38  90 CALM      29.59F
TOMAHAWK       PTSUNNY   41  36  81 CALM      29.61F
MEDFORD        MOSUNNY   41  37  86 CALM      29.61R
MERRILL        NOT AVBL
$$

WIZ029-030-035-036-043>047-221600-
CENTRAL WISCONSIN

CITY           SKY/WX    TMP DP  RH WIND       PRES   REMARKS
WAUSAU         CLOUDY    44  37  76 SE8       29.58S
MOSINEE        MOSUNNY   45  39  81 SE3       29.62F
MARSHFIELD     MOSUNNY   47  36  65 S5        29.58F
STEVENS POINT  MOSUNNY   45  37  75 S3        29.62F
WAUPACA        CLOUDY    49  44  85 SE3       29.63F
WAUTOMA        CLOUDY    51  44  77 S6        29.64F
WISC RAPIDS    MOSUNNY   54  39  57 SW7       29.61F
CAMP DOUGLAS   NOT AVBL
$$

WIZ011>013-019>022-031-037>040-048>050-221600-
NORTHEAST WISCONSIN

CITY           SKY/WX    TMP DP  RH WIND       PRES   REMARKS
ANTIGO         CLOUDY    37  35  93 NW6       29.64R WCI  32
SHAWANO        CLOUDY    46  40  80 S3        29.63F
OCONTO         CLOUDY    41  38  89 E8        29.61F
STURGEON BAY   MOSUNNY   47  42  83 S5        29.67F
GREEN BAY      CLOUDY    46  43  89 S6        29.66F
MANITOWOC      CLOUDY    41  39  93 E6        29.68F FOG
APPLETON       PTSUNNY   46  45  93 S7        28.65F
CLINTONVILLE   PTSUNNY   46  41  81 S5        29.63F
OSHKOSH        MOSUNNY   50  46  86 S15       29.65F
$$

WIZ032>034-041-042-053>061-221600-
SOUTHWEST WISCONSIN

CITY           SKY/WX    TMP DP  RH WIND       PRES   REMARKS
LA CROSSE      MOSUNNY   49  36  61 S8        29.61F
SPARTA         MOSUNNY   54  36  51 SW8       29.61F
VIROQUA        MOSUNNY   49  37  62 SW12      29.64S
BOSCOBEL       SUNNY     47  41  80 W3        29.67F
PRAIRIE DU CHI MOSUNNY   53  38  58 CALM      29.66F
PLATTEVILLE    MOSUNNY   49  49 100 S15       29.71R
$$

WIZ056-057-062-063-064-067-068-221600-
SOUTH CENTRAL WISCONSIN

CITY           SKY/WX    TMP DP  RH WIND       PRES   REMARKS
REEDSBURG      SUNNY     53  44  72 SW13G18   29.64F
BARABOO/DELLS  SUNNY     55  41  59 SW9       29.65F
LONE ROCK      NOT AVBL
MINERAL POINT  LGT RAIN  46  46 100 S9        29.69F VSB<1/4
MADISON        PTSUNNY   51  49  92 S14       29.68F FOG
MIDDLETON      SUNNY     55  49  81 SW9       29.69F
WATERTOWN      CLOUDY    51  51 100 S10G16    29.70F FOG
MONROE         DRZL/FOG  48  48 100 S16       29.72F VSB<1/4
JANESVILLE     CLOUDY    52  52 100 SW13      29.73F FOG
$$

WIZ051-052-058>065-066-070>072-221600-
SOUTHEAST WISCONSIN

CITY           SKY/WX    TMP DP  RH WIND       PRES   REMARKS
MILWAUKEE      CLOUDY    54  51  90 SW15G25   29.73F
WAUKESHA       CLOUDY    52  50  93 SW7       29.73F FOG
MILWAUKEE/TIMM CLOUDY    52  48  87 SW13      29.73F FOG
RACINE         CLOUDY    53  52  96 SW14      29.76F FOG
KENOSHA        CLOUDY    53  52  96 SW12G21   29.75F FOG
FOND DU LAC    MOSUNNY   54  46  74 S9        29.66F
SHEBOYGAN      MOSUNNY   55  47  74 SW10      29.68F
WEST BEND      SUNNY     54  50  87 SW12      29.70F
JUNEAU         MOSUNNY   50  49  97 S12       29.71F FOG
$$

LSZ147-162-221600-
LAKE SUPERIOR

STATION/POSITION TIME  TEMP    WIND        PRES    WAVE
                       AIR SEA DIR/SP/G            HT/PER
                 (UTC) (F)     (DEG/KT/KT) (MB)    (FT/S)
DEVILS ISLAND    1400   36     240/  2/  3 1004.3R
PORT WING        1440   35     120/  2/  3 1004.1F
SAXON HARBOR     1430   36     190/  3/  4 1004.1R
$$

LMZ867-665-643>646-221600-
LAKE MICHIGAN

STATION/POSITION TIME  TEMP    WIND        PRES    WAVE
                       AIR SEA DIR/SP/G            HT/PER
                 (UTC) (F)     (DEG/KT/KT) (MB)    (FT/S)
CHAMBERS ISLAND  1440   45     180/  6/ 12 1004.1F
NORTHPORT PIER   1440   44     170/  3/  8 1004.4F
SISTER BAY       1405   39     170/  6/  9   N/A
KEWAUNEE LAKESHO 1430   37     170/  9/ 10 1004.9F
SHEBOYGAN LAKESH 1400   38     170/ 15/ 16 1006.1F
PORT WASHINGTON  1430   48     190/  7/ 10 1007.1F
MILWAUKEE LAKESH 1430   52     230/ 14/ 16   N/A
KENOSHA   LAKESH 1400   53     250/ 10/ 15 1008.5
$$

TC  - TEMPERATURE IN CELSIUS
VSB - VISIBILITY IN STATUTE MILES
WCI - WIND CHILL INDEX
HX  - HEAT INDEX




USA.gov is the U.S. government's official web portal to all federal, state and local government web resources and services.